Location: Mount Tamalpais State Park
(37.9108°N, 122.6128°W)
Time: 21:21:54
(UTC-07:00)

Cosmos 1814 Rocket - Visible Passes

Search period start: 04 August 2015 00:00
Search period end: 14 August 2015 00:00
Orbit: 744 x 789 km, 74.1° (Epoch: 04 August)

Date Brightness Start Highest point End Pass type
(mag) Time Alt. Az. Time Alt. Az. Time Alt. Az.
04 Aug 5.4 21:29:20 17° ESE 21:29:49 18° E 21:33:24 10° NE visible
04 Aug 4.8 23:09:30 33° WSW 23:11:29 50° WNW 23:16:40 10° N visible
05 Aug 3.9 22:31:30 33° SSW 22:33:57 88° WNW 22:39:20 10° NNE visible
06 Aug 6.9 00:15:17 10° WNW 00:16:57 11° NW 00:18:19 10° NW visible
06 Aug 4.1 21:53:08 20° S 21:56:33 52° ESE 22:01:45 10° NNE visible
06 Aug 6.5 23:35:13 10° WSW 23:39:01 19° WNW 23:42:39 10° NNW visible
07 Aug 4.8 21:14:45 10° SSE 21:19:13 29° E 21:23:51 10° NE visible
07 Aug 5.7 22:56:31 10° SW 23:01:13 31° WNW 23:05:55 10° N visible
08 Aug 5.5 20:38:50 10° SE 20:41:58 17° E 20:45:21 10° ENE visible
08 Aug 4.7 22:18:24 10° SW 22:23:35 53° WNW 22:28:49 10° N visible
09 Aug 4.0 21:40:47 10° SSW 21:46:05 87° ESE 21:51:28 10° NNE visible
09 Aug 7.0 23:26:53 10° WNW 23:29:00 12° NW 23:30:49 10° NNW visible
10 Aug 4.2 21:03:37 10° S 21:08:40 49° ESE 21:13:50 10° NNE visible
10 Aug 6.5 22:47:08 10° WSW 22:51:04 20° WNW 22:54:54 10° NNW visible
11 Aug 5.8 22:08:30 10° SW 22:13:18 33° WNW 22:18:06 10° N visible
12 Aug 4.7 21:30:28 10° SSW 21:35:40 57° WNW 21:40:58 10° N visible
13 Aug 4.0 20:52:53 10° SSW 20:58:11 82° ESE 21:03:35 10° NNE visible
13 Aug 7.1 22:38:35 10° W 22:41:03 13° NW 22:43:15 10° NNW visible
